From 06/04/2019 00:00 to 06/20/2019 00:00

Date LAKE ELEVATION [FT] PRECIPITATION INCREMENT [IN] PRECIPITATION TOTAL [IN] AIR TEMPERATURE [F] RELATIVE HUMIDITY [%] RELEASE [CFS]
06/18/2019 13:00 -- -- -- -- -- 35.0
06/18/2019 12:00 115.95 0.00 -- 68.0 -- 34.0
06/18/2019 11:00 115.95 0.00 -- 67.0 -- 34.3
06/18/2019 10:00 115.95 0.00 -- 66.0 -- 34.3
06/18/2019 09:00 115.96 0.00 -- 65.0 -- 34.8
06/18/2019 08:00 115.96 0.00 -- 62.0 -- 35.0
06/18/2019 07:00 115.96 0.00 -- 61.0 -- 35.0
06/18/2019 06:00 115.96 0.00 -- 61.0 -- 35.3
06/18/2019 05:00 115.96 0.00 -- 62.0 -- 35.3
06/18/2019 04:00 115.96 0.00 -- 62.0 -- 35.3
06/18/2019 03:00 115.96 0.00 -- 63.0 -- 34.8
06/18/2019 02:00 115.95 0.00 -- 62.0 -- 34.3
06/18/2019 01:00 115.95 0.00 -- 62.0 -- 34.5
06/18/2019 00:00 115.95 0.00 -- 64.0 -- 34.0
06/17/2019 23:00 115.95 0.00 -- 65.0 -- 34.0
06/17/2019 22:00 115.95 0.00 -- 68.0 -- 33.8
06/17/2019 21:00 115.95 0.00 -- 72.0 -- 34.0
06/17/2019 20:00 115.96 0.00 -- 75.0 -- 34.3
06/17/2019 19:00 115.95 0.00 -- 78.0 -- 34.5
06/17/2019 18:00 115.96 0.00 -- 78.0 -- 35.5
06/17/2019 17:00 115.96 0.00 -- 78.0 -- 36.0
06/17/2019 16:00 115.96 0.00 -- 77.0 -- 36.3
06/17/2019 15:00 115.96 0.00 -- 76.0 -- 36.3
06/17/2019 14:00 115.96 0.00 -- 74.0 -- 36.5
06/17/2019 13:00 115.97 0.00 -- 72.0 -- 37.0
06/17/2019 12:00 115.97 0.00 -- 71.0 -- 37.0
06/17/2019 11:00 115.97 0.00 -- 69.0 -- 37.3
06/17/2019 10:00 115.97 0.00 -- 66.0 -- 37.3
06/17/2019 09:00 115.97 0.00 -- 66.0 -- 36.5
06/17/2019 08:00 115.96 0.00 -- 64.0 -- 36.3
06/17/2019 07:00 115.96 0.00 -- 63.0 -- 36.5
06/17/2019 06:00 115.96 0.00 -- 63.0 -- 36.8
06/17/2019 05:00 115.97 0.00 -- 64.0 -- 36.8
06/17/2019 04:00 115.97 0.00 -- 65.0 -- 37.3
06/17/2019 03:00 115.97 0.01 -- 65.0 -- 37.3
06/17/2019 02:00 115.97 0.00 -- 65.0 -- 37.3
06/17/2019 01:00 115.97 0.00 -- 65.0 -- 37.3
06/17/2019 00:00 115.97 0.00 0.01 65.0 -- 37.8
06/16/2019 23:00 115.97 0.00 -- 65.0 -- 37.8
06/16/2019 22:00 115.97 0.01 -- 66.0 -- 37.0
06/16/2019 21:00 115.97 0.01 -- 66.0 -- 37.5
06/16/2019 20:00 115.97 0.01 -- 66.0 -- 38.0
06/16/2019 19:00 115.97 0.03 -- 67.0 -- 37.3
06/16/2019 18:00 115.97 0.08 -- 66.0 -- 37.5
06/16/2019 17:00 115.97 0.10 -- 66.0 -- 36.5
06/16/2019 16:00 115.96 0.06 -- 67.0 -- 35.5
06/16/2019 15:00 115.95 0.08 -- 67.0 -- 33.8
06/16/2019 14:00 115.95 0.03 -- 67.0 -- 33.3
06/16/2019 13:00 115.94 0.04 -- 67.0 -- 32.8
06/16/2019 12:00 115.94 0.00 -- 68.0 -- 32.3
06/16/2019 11:00 115.94 0.00 -- 67.0 -- 32.0
06/16/2019 10:00 115.94 0.01 -- 66.0 -- 32.0
06/16/2019 09:00 115.94 0.00 -- 64.0 -- 32.0
06/16/2019 08:00 115.94 0.00 -- 63.0 -- 32.0
06/16/2019 07:00 115.94 0.01 -- 63.0 -- 32.0
06/16/2019 06:00 115.94 0.00 -- 62.0 -- 31.8
06/16/2019 05:00 115.94 0.04 -- 62.0 -- 31.5
06/16/2019 04:00 115.93 0.00 -- 63.0 -- 30.8
06/16/2019 03:00 115.94 0.00 -- 67.0 -- 31.5
06/16/2019 02:00 115.94 0.00 -- 69.0 -- 31.8
06/16/2019 01:00 115.94 0.00 -- 70.0 -- 32.0
06/16/2019 00:00 115.94 0.00 0.51 71.0 -- 31.0
06/15/2019 23:00 115.94 0.00 -- 72.0 -- 31.8
06/15/2019 22:00 115.94 0.00 -- 73.0 -- 32.5
06/15/2019 21:00 115.94 0.00 -- 75.0 -- 33.0
06/15/2019 20:00 115.95 0.00 -- 77.0 -- 33.3
06/15/2019 19:00 115.94 0.00 -- 79.0 -- 33.3
06/15/2019 18:00 115.95 0.00 -- 82.0 -- 33.3
06/15/2019 17:00 115.96 0.00 -- 80.0 -- 34.3
06/15/2019 16:00 115.95 0.00 -- 80.0 -- 33.5
06/15/2019 15:00 115.94 0.00 -- 78.0 -- 33.0
06/15/2019 14:00 115.94 0.00 -- 76.0 -- 32.8
06/15/2019 13:00 115.94 0.00 -- 75.0 -- 33.0
06/15/2019 12:00 115.95 0.00 -- 73.0 -- 33.3
06/15/2019 11:00 115.94 0.00 -- 70.0 -- 32.8
06/15/2019 10:00 115.94 0.00 -- 64.0 -- 31.8
06/15/2019 09:00 115.94 0.00 -- 60.0 -- 32.0
06/15/2019 08:00 115.94 0.00 -- 55.0 -- 31.5
06/15/2019 07:00 115.94 0.00 -- 51.0 -- 32.0
06/15/2019 06:00 115.94 0.00 -- 50.0 -- 32.0
06/15/2019 05:00 115.94 0.00 -- 52.0 -- 32.0
06/15/2019 04:00 115.94 0.00 -- 53.0 -- 32.3
06/15/2019 03:00 115.95 0.00 -- 54.0 -- 32.5
06/15/2019 02:00 115.95 0.00 -- 56.0 -- 33.0
06/15/2019 01:00 115.95 0.00 -- 57.0 -- 33.5
06/15/2019 00:00 115.95 0.00 0.00 57.0 -- 33.8
06/14/2019 23:00 115.95 0.00 -- 59.0 -- 34.5
06/14/2019 22:00 115.95 0.00 -- 61.0 -- 35.0
06/14/2019 21:00 115.96 0.00 -- 63.0 -- 36.0
06/14/2019 20:00 115.96 0.00 -- 65.0 -- 37.0
06/14/2019 19:00 115.98 0.00 -- 67.0 -- 38.3
06/14/2019 18:00 115.98 0.05 -- 69.0 -- 38.3
06/14/2019 17:00 115.97 0.00 -- 70.0 -- 37.5
06/14/2019 16:00 115.96 0.00 -- 69.0 -- 36.0
06/14/2019 15:00 115.96 0.00 -- 70.0 -- 36.0
06/14/2019 14:00 115.97 0.00 -- 70.0 -- 35.8
06/14/2019 13:00 115.97 0.00 -- 67.0 -- 37.0
06/14/2019 12:00 115.96 0.00 -- 67.0 -- 36.0
06/14/2019 11:00 115.96 0.00 -- 63.0 -- 34.8
06/14/2019 10:00 115.96 0.00 -- 60.0 -- 35.3
06/14/2019 09:00 115.95 0.00 -- 57.0 -- 35.3
06/14/2019 08:00 115.96 0.00 -- 54.0 -- 35.0
06/14/2019 07:00 115.96 0.00 -- 53.0 -- 35.3
06/14/2019 06:00 115.96 0.00 -- 52.0 -- 35.8
06/14/2019 05:00 115.96 0.00 -- 51.0 -- 35.8
06/14/2019 04:00 115.96 0.00 -- 52.0 -- 35.5
06/14/2019 03:00 115.96 0.00 -- 52.0 -- 36.0
06/14/2019 02:00 115.96 0.00 -- 52.0 -- 35.8
06/14/2019 01:00 115.96 0.00 -- 52.0 -- 36.5
06/14/2019 00:00 115.97 0.00 0.05 52.0 -- 37.5
06/13/2019 23:00 115.97 0.00 -- 53.0 -- 37.8
06/13/2019 22:00 115.97 0.01 -- 53.0 -- 37.5
06/13/2019 21:00 115.97 0.00 -- 53.0 -- 37.8
06/13/2019 20:00 115.98 0.02 -- 53.0 -- 38.0
06/13/2019 19:00 115.98 0.08 -- 52.0 -- 37.8
06/13/2019 18:00 115.97 0.06 -- 52.0 -- 36.0
06/13/2019 17:00 115.96 0.06 -- 52.0 -- 35.3
06/13/2019 16:00 115.95 0.05 -- 51.0 -- 34.3
06/13/2019 15:00 115.95 0.18 -- 51.0 -- 32.8
06/13/2019 14:00 115.93 0.00 -- 51.0 -- 29.5
06/13/2019 13:00 115.93 0.00 -- 55.0 -- 30.3
06/13/2019 12:00 115.93 0.00 -- 57.0 -- 31.0
06/13/2019 11:00 115.94 0.01 -- 57.0 -- 32.3
06/13/2019 10:00 115.94 0.01 -- 56.0 -- 32.8
06/13/2019 09:00 115.94 0.00 -- 55.0 -- 32.0
06/13/2019 08:00 115.94 0.00 -- 55.0 -- 32.0
06/13/2019 07:00 115.94 0.00 -- 53.0 -- 32.3
06/13/2019 06:00 115.94 0.00 -- 54.0 -- 32.5
06/13/2019 05:00 115.94 0.00 -- 55.0 -- 32.8
06/13/2019 04:00 115.94 0.00 -- 56.0 -- 32.3
06/13/2019 03:00 115.95 0.00 -- 57.0 -- 33.0
06/13/2019 02:00 115.95 0.00 -- 59.0 -- 33.0
06/13/2019 01:00 115.95 0.00 -- 59.0 -- 33.0
06/13/2019 00:00 115.95 0.00 0.48 60.0 -- 32.8
06/12/2019 23:00 115.95 0.00 -- 60.0 -- 33.3
06/12/2019 22:00 115.95 0.00 -- 62.0 -- 33.3
06/12/2019 21:00 115.95 0.00 -- 66.0 -- 33.5
06/12/2019 20:00 115.95 0.00 -- 70.0 -- 33.0
06/12/2019 19:00 115.95 0.00 -- 74.0 -- 33.5
06/12/2019 18:00 115.94 0.00 -- 77.0 -- 32.8
06/12/2019 17:00 115.96 0.00 -- 78.0 -- 34.3
06/12/2019 16:00 115.95 0.00 -- 76.0 -- 35.0
06/12/2019 15:00 115.96 0.00 -- 75.0 -- 36.3
06/12/2019 14:00 115.96 0.00 -- 72.0 -- 36.0
06/12/2019 13:00 115.97 0.00 -- 70.0 -- 36.5
06/12/2019 12:00 115.97 0.00 -- 68.0 -- 36.3
06/12/2019 11:00 115.96 0.00 -- 66.0 -- 36.3
06/12/2019 10:00 115.97 0.00 -- 64.0 -- 37.0
06/12/2019 09:00 115.97 0.00 -- 59.0 -- 37.0
06/12/2019 08:00 115.96 0.00 -- 57.0 -- 36.8
06/12/2019 07:00 115.97 0.00 -- 51.0 -- 37.0
06/12/2019 06:00 115.96 0.00 -- 50.0 -- 36.5
06/12/2019 05:00 115.97 0.00 -- 51.0 -- 37.0
06/12/2019 04:00 115.97 0.00 -- 53.0 -- 37.3
06/12/2019 03:00 115.97 0.00 -- 54.0 -- 37.8
06/12/2019 02:00 115.97 0.00 -- 57.0 -- 38.3
06/12/2019 01:00 115.98 0.00 -- 60.0 -- 39.3
06/12/2019 00:00 115.98 0.00 0.00 62.0 -- 39.5
06/11/2019 23:00 115.98 0.00 -- 64.0 -- 40.3
06/11/2019 22:00 115.99 0.00 -- 65.0 -- 40.5
06/11/2019 21:00 115.98 0.00 -- 67.0 -- 41.3
06/11/2019 20:00 115.99 0.00 -- 69.0 -- 42.5
06/11/2019 19:00 116.01 0.00 -- 73.0 -- 45.8
06/11/2019 18:00 116.00 0.01 -- 74.0 -- 45.0
06/11/2019 17:00 116.01 0.00 -- 73.0 -- 45.3
06/11/2019 16:00 116.00 0.00 -- 71.0 -- 43.5
06/11/2019 15:00 116.01 0.00 -- 71.0 -- 44.8
06/11/2019 14:00 116.01 0.01 -- 70.0 -- 44.8
06/11/2019 13:00 116.00 0.02 -- 71.0 -- 43.0
06/11/2019 12:00 116.00 0.02 -- 70.0 -- 42.5
06/11/2019 11:00 115.99 0.02 -- 69.0 -- 42.0
06/11/2019 10:00 115.99 0.12 -- 67.0 -- 41.5
06/11/2019 09:00 115.98 0.03 -- 66.0 -- 40.0
06/11/2019 08:00 115.99 0.10 -- 65.0 -- 39.5
06/11/2019 07:00 115.97 0.02 -- 65.0 -- 38.5
06/11/2019 06:00 115.98 0.05 -- 65.0 -- 38.0
06/11/2019 05:00 115.97 0.09 -- 64.0 -- 37.5
06/11/2019 04:00 115.96 0.21 -- 64.0 -- 34.8
06/11/2019 03:00 115.94 0.07 -- 63.0 -- 32.0
06/11/2019 02:00 115.94 0.00 -- 63.0 -- 32.0
06/11/2019 01:00 115.94 0.00 -- 63.0 -- 31.8
06/11/2019 00:00 115.94 0.00 0.77 65.0 -- 32.0
06/10/2019 23:00 115.94 0.00 -- 67.0 -- 31.3
06/10/2019 22:00 115.94 0.00 -- 69.0 -- 31.8
06/10/2019 21:00 115.94 0.00 -- 70.0 -- 32.3
06/10/2019 20:00 115.94 0.00 -- 72.0 -- 31.8
06/10/2019 19:00 115.94 0.00 -- 74.0 -- 32.3
06/10/2019 18:00 115.94 0.00 -- 76.0 -- 31.8
06/10/2019 17:00 115.94 0.00 -- 78.0 -- 32.5
06/10/2019 16:00 115.95 0.00 -- 78.0 -- 32.5
06/10/2019 15:00 115.95 0.00 -- 78.0 -- 33.3
06/10/2019 14:00 115.95 0.00 -- 78.0 -- 33.8
06/10/2019 13:00 115.95 0.00 -- 76.0 -- 33.8
06/10/2019 12:00 115.95 0.00 -- 75.0 -- 34.0
06/10/2019 11:00 115.95 0.00 -- 72.0 -- 33.5
06/10/2019 10:00 115.95 0.00 -- 70.0 -- 33.8
06/10/2019 09:00 115.95 0.00 -- 65.0 -- 34.5
06/10/2019 08:00 115.95 0.00 -- 61.0 -- 34.3
06/10/2019 07:00 115.95 0.00 -- 57.0 -- 34.5
06/10/2019 06:00 115.96 0.00 -- 57.0 -- 35.0
06/10/2019 05:00 115.96 0.00 -- 59.0 -- 35.0
06/10/2019 04:00 115.96 0.00 -- 59.0 -- 35.3
06/10/2019 03:00 115.96 0.00 -- 61.0 -- 35.0
06/10/2019 02:00 115.96 0.00 -- 63.0 -- 35.5
06/10/2019 01:00 115.96 0.00 -- 64.0 -- 35.3
06/10/2019 00:00 115.96 0.00 0.00 66.0 -- 35.3
06/09/2019 23:00 115.96 0.00 -- 65.0 -- 35.0
06/09/2019 22:00 115.95 0.00 -- 66.0 -- 35.0
06/09/2019 21:00 115.95 0.00 -- 70.0 -- 34.5
06/09/2019 20:00 115.95 0.00 -- 75.0 -- 34.0
06/09/2019 19:00 115.96 0.00 -- 78.0 -- 34.0
06/09/2019 18:00 115.96 0.00 -- 80.0 -- 35.0
06/09/2019 17:00 115.95 0.00 -- 79.0 -- 34.8
06/09/2019 16:00 115.96 0.00 -- 79.0 -- 35.5
06/09/2019 15:00 115.96 0.00 -- 77.0 -- 35.5
06/09/2019 14:00 115.96 0.00 -- 75.0 -- 36.0
06/09/2019 13:00 115.97 0.00 -- 72.0 -- 36.3
06/09/2019 12:00 115.97 0.00 -- 69.0 -- 36.8
06/09/2019 11:00 115.96 0.00 -- 65.0 -- 35.8
06/09/2019 10:00 115.96 0.00 -- 64.0 -- 36.0
06/09/2019 09:00 115.96 0.00 -- 60.0 -- 36.5
06/09/2019 08:00 115.96 0.00 -- 54.0 -- 36.3
06/09/2019 07:00 115.97 0.00 -- 50.0 -- 36.5
06/09/2019 06:00 115.97 0.00 -- 50.0 -- 36.8
06/09/2019 05:00 115.97 0.00 -- 50.0 -- 37.0
06/09/2019 04:00 115.97 0.00 -- 51.0 -- 37.0
06/09/2019 03:00 115.97 0.00 -- 52.0 -- 37.0
06/09/2019 02:00 115.97 0.00 -- 52.0 -- 37.3
06/09/2019 01:00 115.97 0.00 -- 53.0 -- 37.3
06/09/2019 00:00 115.97 0.00 0.00 56.0 -- 36.8
06/08/2019 23:00 115.97 0.00 -- 60.0 -- 36.5
06/08/2019 22:00 115.96 0.00 -- 63.0 -- 36.3
06/08/2019 21:00 115.96 0.00 -- 67.0 -- 36.0
06/08/2019 20:00 115.96 0.00 -- 72.0 -- 35.8
06/08/2019 19:00 115.96 0.00 -- 74.0 -- 35.8
06/08/2019 18:00 115.96 0.00 -- 76.0 -- 35.0
06/08/2019 17:00 115.97 0.00 -- 75.0 -- 36.8
06/08/2019 16:00 115.96 0.00 -- 74.0 -- 36.5
06/08/2019 15:00 115.96 0.00 -- 74.0 -- 36.0
06/08/2019 14:00 115.96 0.00 -- 72.0 -- 36.5
06/08/2019 13:00 115.98 0.00 -- 72.0 -- 38.5
06/08/2019 12:00 115.97 0.00 -- 72.0 -- 37.3
06/08/2019 11:00 115.97 0.00 -- 71.0 -- 37.0
06/08/2019 10:00 115.97 0.00 -- 68.0 -- 37.8
06/08/2019 09:00 115.97 0.00 -- 66.0 -- 37.8
06/08/2019 08:00 115.97 0.00 -- 58.0 -- 37.5
06/08/2019 07:00 115.97 0.00 -- 52.0 -- 37.5
06/08/2019 06:00 115.97 0.00 -- 54.0 -- 38.0
06/08/2019 05:00 115.97 0.00 -- 55.0 -- 38.0
06/08/2019 04:00 115.97 0.00 -- 57.0 -- 38.0
06/08/2019 03:00 115.97 0.00 -- 58.0 -- 37.8
06/08/2019 02:00 115.97 0.00 -- 59.0 -- 37.8
06/08/2019 01:00 115.97 0.00 -- 61.0 -- 37.3
06/08/2019 00:00 115.97 0.00 0.00 61.0 -- 37.0
06/07/2019 23:00 115.97 0.00 -- 61.0 -- 36.5
06/07/2019 22:00 115.97 0.00 -- 64.0 -- 37.0
06/07/2019 21:00 115.97 0.00 -- 68.0 -- 36.8
06/07/2019 20:00 115.96 0.00 -- 73.0 -- 36.3
06/07/2019 19:00 115.96 0.00 -- 76.0 -- 36.5
06/07/2019 18:00 115.96 0.00 -- 76.0 -- 36.0
06/07/2019 17:00 115.96 0.00 -- 75.0 -- 36.0
06/07/2019 16:00 115.97 0.00 -- 76.0 -- 36.8
06/07/2019 15:00 115.97 0.00 -- 75.0 -- 36.5
06/07/2019 14:00 115.96 0.00 -- 74.0 -- 36.3
06/07/2019 13:00 115.98 0.00 -- 74.0 -- 37.8
06/07/2019 12:00 115.97 0.00 -- 72.0 -- 38.0
06/07/2019 11:00 115.97 0.00 -- 70.0 -- 37.0
06/07/2019 10:00 115.96 0.00 -- 68.0 -- 36.8
06/07/2019 09:00 115.96 0.00 -- 62.0 -- 36.8
06/07/2019 08:00 115.97 0.00 -- 56.0 -- 37.3
06/07/2019 07:00 115.97 0.00 -- 51.0 -- 37.3
06/07/2019 06:00 115.97 0.00 -- 53.0 -- 37.0
06/07/2019 05:00 115.97 0.00 -- 54.0 -- 38.0
06/07/2019 04:00 115.97 0.00 -- 56.0 -- 38.5
06/07/2019 03:00 115.97 0.00 -- 57.0 -- 38.5
06/07/2019 02:00 115.97 0.00 -- 57.0 -- 38.3
06/07/2019 01:00 115.97 0.00 -- 58.0 -- 37.8
06/07/2019 00:00 115.98 0.00 0.00 59.0 -- 38.3
06/06/2019 23:00 115.97 0.00 -- 60.0 -- 37.5
06/06/2019 22:00 115.97 0.00 -- 62.0 -- 37.0
06/06/2019 21:00 115.97 0.00 -- 65.0 -- 37.3
06/06/2019 20:00 115.96 0.00 -- 67.0 -- 36.3
06/06/2019 19:00 115.97 0.00 -- 69.0 -- 36.5
06/06/2019 18:00 115.96 0.00 -- 69.0 -- 36.3
06/06/2019 17:00 115.96 0.00 -- 69.0 -- 36.3
06/06/2019 16:00 115.97 0.00 -- 70.0 -- 37.0
06/06/2019 15:00 115.97 0.00 -- 73.0 -- 37.8
06/06/2019 14:00 115.97 0.00 -- 72.0 -- 37.8
06/06/2019 13:00 115.97 0.00 -- 70.0 -- 37.3
06/06/2019 12:00 115.97 0.00 -- 67.0 -- 37.0
06/06/2019 11:00 115.97 0.00 -- 64.0 -- 37.5
06/06/2019 10:00 115.97 0.01 -- 61.0 -- 37.0
06/06/2019 09:00 115.97 0.02 -- 59.0 -- 37.0
06/06/2019 08:00 115.97 0.03 -- 58.0 -- 36.5
06/06/2019 07:00 115.96 0.01 -- 58.0 -- 36.0
06/06/2019 06:00 115.96 0.01 -- 58.0 -- 36.3
06/06/2019 05:00 115.96 0.02 -- 57.0 -- 36.5
06/06/2019 04:00 115.96 0.25 -- 57.0 -- 36.0
06/06/2019 03:00 115.95 0.37 -- 57.0 -- 31.3
06/06/2019 02:00 115.92 0.18 -- 57.0 -- 25.3
06/06/2019 01:00 115.89 0.11 -- 57.0 -- 23.5
06/06/2019 00:00 115.88 0.00 1.01 59.0 -- 23.0
06/05/2019 23:00 115.89 0.00 -- 60.0 -- 23.0
06/05/2019 22:00 115.88 0.00 -- 60.0 -- 21.8
06/05/2019 21:00 115.88 0.00 -- 61.0 -- 21.5
06/05/2019 20:00 115.88 0.00 -- 62.0 -- 22.0
06/05/2019 19:00 115.88 0.00 -- 63.0 -- 21.8
06/05/2019 18:00 115.87 0.00 -- 62.0 -- 20.8
06/05/2019 17:00 115.87 0.00 -- 65.0 -- 21.3
06/05/2019 16:00 115.88 0.00 -- 67.0 -- 22.0
06/05/2019 15:00 115.88 0.00 -- 69.0 -- 23.0
06/05/2019 14:00 115.89 0.00 -- 78.0 -- 23.3
06/05/2019 13:00 115.89 0.00 -- 76.0 -- 23.5
06/05/2019 12:00 115.89 0.00 -- 70.0 -- 23.0
06/05/2019 11:00 115.89 0.00 -- 64.0 -- 22.8
06/05/2019 10:00 115.88 0.00 -- 61.0 -- 22.8
06/05/2019 09:00 115.88 0.00 -- 57.0 -- 22.8
06/05/2019 08:00 115.88 0.00 -- 55.0 -- 22.5
06/05/2019 07:00 115.88 0.00 -- 53.0 -- 22.3
06/05/2019 06:00 115.88 0.00 -- 53.0 -- 22.5
06/05/2019 05:00 115.88 0.00 -- 53.0 -- 22.5
06/05/2019 04:00 115.88 0.01 -- 53.0 -- 22.5
06/05/2019 03:00 115.89 0.00 -- 53.0 -- 22.8
06/05/2019 02:00 115.88 0.00 -- 54.0 -- 23.0
06/05/2019 01:00 115.88 0.00 -- 57.0 -- 22.5
06/05/2019 00:00 115.89 0.00 0.01 59.0 -- 23.0
06/04/2019 23:00 115.89 0.00 -- 61.0 -- 23.5
06/04/2019 22:00 115.89 0.00 -- 62.0 -- 24.0
06/04/2019 21:00 115.89 0.00 -- 63.0 -- 23.3
06/04/2019 20:00 115.89 0.00 -- 64.0 -- 23.5
06/04/2019 19:00 115.89 0.00 -- 65.0 -- 24.3
06/04/2019 18:00 115.88 0.00 -- 66.0 -- 23.8
06/04/2019 17:00 115.88 0.00 -- 67.0 -- 23.8
06/04/2019 16:00 115.89 0.00 -- 67.0 -- 25.5
06/04/2019 15:00 115.90 0.00 -- 65.0 -- 26.0
06/04/2019 14:00 115.91 0.00 -- 64.0 -- 26.3
06/04/2019 13:00 115.90 0.00 -- 63.0 -- 25.5
06/04/2019 12:00 -- -- -- 62.0 -- 24.8
06/04/2019 11:00 -- -- -- 60.0 -- 24.3
06/04/2019 10:00 -- -- -- 58.0 -- 24.8
06/04/2019 09:00 -- -- -- 55.0 -- 23.3
06/04/2019 08:00 -- -- -- 50.0 -- 23.3
06/04/2019 07:00 -- -- -- 45.0 -- 23.0
06/04/2019 06:00 -- -- -- 45.0 -- 23.5
06/04/2019 05:00 -- -- -- 45.0 -- 23.0
06/04/2019 04:00 -- -- -- 47.0 -- 23.8
06/04/2019 03:00 -- -- -- 50.0 -- 24.3
06/04/2019 02:00 -- -- -- 52.0 -- 25.0
06/04/2019 01:00 -- -- -- 52.0 -- 25.0
06/04/2019 00:00 -- -- 0.00 56.0 -- 25.5